Regional Weather Roundup
Issued by NWS

Home | Current Version | Previous Version | Text Only | Print | Product List | Glossary On
Versions: 1 2 3 4 5 6 7 8 9 10 11 12 13 14 15 16 17 18 19 20 21 22 23 24 25 26 27 28 29 30 31 32 33 34 35 36 37 38 39 40 41 42 43 44 45 46 47 48 49 50
000
ASUS45 KABQ 271101
RWRNM
NEW MEXICO REGIONAL WEATHER ROUNDUP
NATIONAL WEATHER SERVICE ALBUQUERQUE NM
500 AM MDT TUE SEP 27 2016

NOTE: "FAIR" MEANS FEW OR NO CLOUDS BELOW 12,000 FEET AGL WITH NO
       SIGNIFICANT WEATHER OR OBSTRUCTIONS TO VISION.

      THIS PRODUCT IS RELEASED AS TWO VERSIONS.  ONE VERSION NEAR
      THE TOP OF THE HOUR CONTAINING PRELIMINARY DATA FROM ALBUQUERQUE
      AND OTHER STATIONS.  A FINAL VERSION WITH ADDITIONAL DATA IS
      ISSUED ABOUT 10 MINUTES AFTER THE HOUR.

NMZ501-503-504-510>518-271200-
NORTHWEST PLATEAU/NORTHCENTRAL MOUNTAINS

CITY           SKY/WX    TMP DP  RH WIND       PRES   REMARKS
FARMINGTON     FAIR      46  37  71 E7        30.30S
LOS ALAMOS     FAIR      48  30  49 CALM      30.40F
SANTA FE       FAIR      41  33  73 N8        30.36F
TAOS           FAIR      36  25  64 N6        30.41S WCI  31
ANGEL FIRE     FAIR      26  24  91 CALM      30.49R

$$
NMZ402-403-502-505>509-271200-
WESTCENTRAL MOUNTAINS/SOUTHWEST MOUNTAINS

CITY           SKY/WX    TMP DP  RH WIND       PRES   REMARKS
GALLUP         MOCLDY    46  27  47 CALM      30.32F
SILVER CITY    CLOUDY    51  46  81 SE7       30.29S

$$
NMZ407-409-411-412-271200-
SOUTHERN DESERTS

CITY           SKY/WX    TMP DP  RH WIND       PRES   REMARKS
DEMING         CLOUDY    54  51  90 E8        30.26F
LAS CRUCES     CLOUDY    52  51  95 W3        30.28S
HOLLOMAN AFB   FAIR      52  52 100 E6        30.25S
ALAMOGORDO     FAIR      50  50 100 CALM        N/A
T OR C         CLOUDY    54  52  93 CALM      30.27F

$$
NMZ519>523-271200-
CENTRAL VALLEYS/CENTRAL HIGHLANDS

CITY           SKY/WX    TMP DP  RH WIND       PRES   REMARKS
ALBUQUERQUE    CLOUDY    54  34  46 N8        30.31F
CLINES CORNERS FAIR      48  33  56 N3        30.38F
BELEN          LGT RAIN  55  39  56 CALM      30.29F
SOCORRO        FAIR      51  47  85 CALM      30.29R

$$
NMZ524>526-539-540-271200-
SOUTHCENTRAL MOUNTAINS

CITY           SKY/WX    TMP DP  RH WIND       PRES   REMARKS
RUIDOSO        CLOUDY    46  39  76 SW7       30.37S

$$
NMZ527>531-271200-
NORTHEAST HIGHLANDS/NORTHEAST PLAINS

CITY           SKY/WX    TMP DP  RH WIND       PRES   REMARKS
LAS VEGAS      FAIR      40  31  70 N7        30.38S
RATON          FAIR      39  33  79 NE3       30.34F
CLAYTON        FAIR      51  37  58 W12       30.26F

$$
NMZ532>537-271200-
EASTCENTRAL PLAINS

CITY           SKY/WX    TMP DP  RH WIND       PRES   REMARKS
TUCUMCARI      FAIR      50  37  61 W8        30.25F
CANNON AFB     MOCLDY    52  41  65 NW7       30.28S
CLOVIS AIRPORT FAIR      46  37  71 NW7       30.27F

$$
NMZ028-029-538-271200-
SOUTHEAST PLAINS

CITY           SKY/WX    TMP DP  RH WIND       PRES   REMARKS
ROSWELL        MOCLDY    55  50  83 CALM      30.25F
ARTESIA        FAIR      54  54 100 SE5       30.25F
CARLSBAD       FAIR      53  52  96 S6        30.24F
HOBBS          CLOUDY    54  54 100 W3        30.27S


$$



USA.gov is the U.S. government's official web portal to all federal, state and local government web resources and services.